Overview Statistics Trail Chart Weather Telemetry Raw packets
 

This is the latest recevied weather packets stored in our database for station/object KG7FOQ-13. If no packets are shown the sender has not sent any weather packets the latest 10 day(s).

<< 86 87 88 89 90 91 92 >>
Time Temp. Humidity Pressure Rain* Wind** Luminosity Snow
1787965995 20.56° C 63% 1017.4 hPa 0 mm - - -
1787965693 21.11° C 63% 1017.1 hPa 0 mm - - -
1787965393 21.11° C 61% 1017 hPa 0 mm - - -
1787964792 21.11° C 64% 1017 hPa 0 mm - - -
1787964491 21.11° C 62% 1017.1 hPa 0 mm - - -
1787964191 21.11° C 63% 1017.2 hPa 0 mm - - -
1787963890 21.11° C 63% 1017.1 hPa 0 mm - - -
1787963590 21.11° C 63% 1017.1 hPa 0 mm - - -
1787963290 21.67° C 62% 1017 hPa 0 mm - - -
1787962988 21.67° C 59% 1017 hPa 0 mm - - -
1787962688 21.67° C 58% 1017.1 hPa 0 mm - - -
1787962388 21.67° C 59% 1017.1 hPa 0 mm - - -
1787962087 21.11° C 60% 1017 hPa 0 mm - - -
1787961784 21.11° C 63% 1017.1 hPa 0 mm - - -
1787961484 21.11° C 66% 1016.9 hPa 0 mm - - -
1787961186 21.11° C 63% 1016.9 hPa 0 mm - - -
1787960884 21.67° C 61% 1017 hPa 0 mm - - -
1787960583 21.11° C 61% 1017.1 hPa 0 mm - - -
1787960283 21.11° C 60% 1017.3 hPa 0 mm - - -
1787959982 21.67° C 60% 1017.3 hPa 0 mm - - -
1787959682 21.67° C 57% 1017.4 hPa 0 mm - - -
1787959381 22.78° C 54% 1017.3 hPa 0 mm - - -
1787959081 23.33° C 49% 1017.2 hPa 0 mm - - -
1787958780 23.33° C 48% 1017.2 hPa 0 mm - - -
1787958479 23.33° C 47% 1017.1 hPa 0 mm - - -

* Rain latest hour (hover to see other rain measurements)
** Current wind speed in m/s (hover to see current wind gust speed)